Change the Weather History Date:

Friday, December 28, 2012

  Actual Average Record
Temperature  
Mean Temperature 16 °F 26 °F  
Max Temperature 32 °F 39 °F 63 °F (1999)
Min Temperature 0 °F 12 °F -18 °F (1941)
Degree Days  
Heating Degree Days 49 39  
Month to date heating degree days 984 1091  
Since 1 July heating degree days 2287 2656  
Cooling Degree Days 0 0  
Month to date cooling degree days 0 0  
Year to date cooling degree days 1208 724  
Moisture  
Dew Point 10 °F    
Average Humidity 77    
Maximum Humidity 95    
Minimum Humidity 59    
Precipitation  
Precipitation T in 0.01 in 0.42 in (2006)
Month to date precipitation 0.19 0.46  
Year to date precipitation 6.99 15.74  
Snow  
Snow T in 0.30 in 4.50 in (2006)
Month to date snowfall 2.3 6.5  
Since 1 July snowfall 12.8 15.4  
Snow Depth 2.00 in    
Sea Level Pressure  
Sea Level Pressure 30.13 in    
Wind  
Wind Speed 8 mph (WNW)    
Max Wind Speed 20 mph    
Max Gust Speed 44 mph    
Visibility 10 miles    
Events Snow    
T = Trace of Precipitation, MM = Missing Value Source: NWS Daily Summary

Daily Weather History Graph

Daily Weather History Graph

Search for Another Location

Airport or City:

Trip Planner

Search our weather history database for the weather conditions in past years. The results will help you decide how hot, cold, wet, or windy it might be!

Date:

Astronomy

Dec. 28, 2012 Rise Set
Actual Time 7:21 AM MST 4:31 PM MST
Civil Twilight 6:49 AM MST 5:02 PM MST
Nautical Twilight 6:14 AM MST 5:37 PM MST
Astronomical Twilight 5:40 AM MST 6:11 PM MST
Moon 5:10 PM MST (12/28) 7:16 AM MST (12/28)
Length of Visible Light 10h 12m
Length of Day
9h 09m
Full, 100% of the Moon is Illuminated
Dec 28
Full
Jan 4
Last Quarter
Jan 11
New
Jan 18
First Quarter
Jan 26
Full

Hourly Weather History & Observations

Time (MST) Temp. Windchill Dew Point Humidity Pressure Visibility Wind Dir Wind Speed Gust Speed Precip Events Conditions
12:53 AM 9.0 °F -4.2 °F 5.0 °F 84% 30.08 in 6.0 mi WNW 9.2 mph - 0.00 in Snow Light Snow
1:53 AM 8.1 °F -5.3 °F 5.0 °F 87% 30.10 in 10.0 mi NW 9.2 mph - 0.00 in   Overcast
2:53 AM 3.9 °F - 1.0 °F 88% 30.12 in 10.0 mi Calm Calm - N/A   Scattered Clouds
3:53 AM 3.2 °F -6.2 °F -0.4 °F 85% 29.92 in 10.0 mi North 4.6 mph - N/A   Scattered Clouds
4:53 AM 3.9 °F -3.4 °F 1.0 °F 88% 30.12 in 10.0 mi WNW 3.5 mph - N/A   Overcast
5:53 AM 1.9 °F -5.6 °F -0.9 °F 88% 30.14 in 10.0 mi WNW 3.5 mph - N/A   Clear
6:53 AM -0.4 °F -13.4 °F -2.2 °F 92% 29.95 in 10.0 mi NW 6.9 mph - N/A   Clear
7:53 AM 3.0 °F -10.5 °F -0.0 °F 87% 30.17 in 9.0 mi WNW 8.1 mph - N/A   Overcast
8:53 AM 8.6 °F 0.1 °F 6.8 °F 92% 29.96 in 10.0 mi NW 4.6 mph - N/A   Mostly Cloudy
9:53 AM 12.2 °F -0.2 °F 8.6 °F 85% 29.98 in 10.0 mi NW 9.2 mph - N/A   Clear
10:53 AM 21.9 °F 11.0 °F 12.0 °F 66% 30.13 in 10.0 mi WNW 10.4 mph - N/A   Scattered Clouds
11:53 AM 26.1 °F 14.0 °F 15.1 °F 63% 30.11 in 10.0 mi WNW 15.0 mph - N/A   Mostly Cloudy
12:53 PM 28.0 °F 20.0 °F 17.1 °F 63% 30.09 in 10.0 mi West 8.1 mph - N/A   Clear
1:53 PM 30.9 °F 20.2 °F 19.9 °F 64% 30.08 in 10.0 mi WNW 15.0 mph 21.9 mph N/A   Clear
2:53 PM 32.0 °F 23.0 °F 19.9 °F 61% 30.11 in 10.0 mi WNW 11.5 mph - N/A   Clear
3:53 PM 28.9 °F 21.1 °F 18.0 °F 64% 30.14 in 10.0 mi West 8.1 mph - N/A   Clear
4:53 PM 21.9 °F 17.2 °F 16.0 °F 78% 30.18 in 10.0 mi WNW 3.5 mph - N/A   Partly Cloudy
5:53 PM 19.0 °F 12.3 °F 14.0 °F 81% 30.22 in 10.0 mi North 4.6 mph - N/A   Overcast
6:53 PM 24.1 °F 16.0 °F 17.1 °F 75% 30.22 in 10.0 mi West 6.9 mph - N/A   Overcast
7:53 PM 23.0 °F 13.9 °F 15.1 °F 72% 30.23 in 10.0 mi WNW 8.1 mph - N/A   Overcast
8:53 PM 21.9 °F 14.5 °F 15.1 °F 75% 30.22 in 10.0 mi WNW 5.8 mph - N/A   Overcast
9:53 PM 19.9 °F 10.1 °F 14.0 °F 78% 30.24 in 10.0 mi West 8.1 mph - N/A   Overcast
10:53 PM 17.1 °F 5.8 °F 10.0 °F 74% 30.23 in 10.0 mi West 9.2 mph - N/A   Scattered Clouds
11:53 PM 10.0 °F -0.9 °F 5.0 °F 80% 30.25 in 10.0 mi NW 6.9 mph - N/A   Clear